sat.trackr.live / text

‹ back to catalog

STARLINK-34367

NORAD 64452 · 2025-130Q

PAYLOAD ACTIVE UNKNOWN

§ Identity

Operator
Country
US
Launch date
2025-06-18
Launch site
AFETR
Launch vehicle
Mass (kg)
RCS (m²)

Purposes: comms

External: N2YO · Heavens-Above · Gunter

§ Orbital elements

Epoch: 2026-09-20T23:12:40.187520Z

Period
93.85 min
Inclination
53.1570°
Eccentricity
0.0001429
Mean motion
15.34404485 rev/d
Perigee alt
461.7 km
Apogee alt
463.7 km
Semi-major
6,840.8 km
B*
1.0290e-4
RAAN
259.1744°
Arg perigee
88.2656°
Mean anomaly
271.8510°
Rev number
7,062

§ Raw data

STARLINK-343671 64452U 25130Q   26263.96713180  .00003102  00000+0  10290-3 0  99962 64452  53.1570 259.1744 0001429  88.2656 271.8510 15.34404485 70624

JSON: /api/v1/satellites/64452 · /tle

For live sub-satellite position, see the globe view (requires WebGL).

§ Visibility from observer

Set your observer location to see the next 7 days of passes ≥ 10°. The values pass through the URL so the page stays shareable.

No JS? Fill the form by hand. The geolocation button needs JavaScript.